1491022800.16,21084,13.81,73886.8,1.47,-29.07,-29.67,0,*76
1491022801.38,21085,13.81,73886.3,1.47,-28.97,-29.61,0,*79
1491022802.62,21086,13.81,73888.5,1.47,-29.07,-29.67,0,*74
1491022803.82,21087,13.81,73890.8,1.45,-29.07,-29.61,0,*71
1491022805.05,21088,13.81,73888.0,1.47,-29.07,-29.61,0,*7C
1491022806.31,21089,13.81,73890.0,1.45,-29.01,-29.73,0,*7A
1491022807.57,21090,13.81,73890.8,1.47,-28.91,-29.61,0,*7B
1491022808.77,21091,13.81,73890.8,1.49,-28.97,-29.61,0,*72
1491022809.99,21092,13.81,73890.3,1.49,-29.13,-29.67,0,*7A
1491022811.22,21093,13.81,73888.3,1.49,-29.13,-29.79,0,*74
1491022812.42,21094,13.81,73888.8,1.49,-28.97,-29.61,0,*77
1491022813.62,21095,13.81,73890.0,1.49,-29.07,-29.67,0,*78
1491022814.82,21096,13.81,73890.0,1.49,-29.07,-29.61,0,*7D
1491022816.08,21097,13.81,73892.5,1.51,-29.01,-29.57,0,*76
1491022817.28,21098,13.81,73894.5,1.49,-29.23,-29.79,0,*7C
1491022818.5,21099,13.81,73888.5,1.49,-29.13,-29.79,0,*7E
1491022819.76,21100,13.81,73886.5,1.51,-29.01,-29.61,0,*7C
1491022821.04,21101,13.81,73888.8,1.51,-28.91,-29.51,0,*76
1491022822.33,21102,13.81,73890.0,1.51,-28.91,-29.51,0,*75
1491022823.56,21103,13.81,73886.5,1.49,-29.07,-29.73,0,*73
1491022824.83,21104,13.81,73886.5,1.51,-29.17,-29.73,0,*7C
1491022826.11,21105,13.81,73886.3,1.51,-29.17,-29.73,0,*7D
1491022827.39,21106,13.81,73888.0,1.51,-28.75,-29.51,0,*7B
1491022828.67,21107,13.81,73886.8,1.51,-28.75,-29.51,0,*7A
1491022829.93,21108,13.81,73888.0,1.51,-28.85,-29.51,0,*7A
1491022831.19,21109,13.81,73894.0,1.53,-28.79,-29.35,0,*78
1491022832.45,21110,13.81,73892.8,1.53,-28.79,-29.35,0,*70
1491022833.68,21111,13.81,73888.0,1.53,-29.13,-29.67,0,*7B
1491022834.92,21112,13.81,73894.8,1.53,-29.29,-29.73,0,*74
1491022836.17,21113,13.81,73894.0,1.53,-29.13,-29.73,0,*7C
1491022837.41,21114,13.81,73888.0,1.53,-29.17,-29.83,0,*70
1491022838.64,21115,13.81,73892.0,1.53,-29.17,-29.83,0,*71
1491022839.9,21116,13.81,73892.8,1.55,-29.01,-29.67,0,*79
1491022841.15,21117,13.81,73890.0,1.55,-29.01,-29.57,0,*7B
1491022842.41,21118,13.81,73890.5,1.55,-29.01,-29.67,0,*77
1491022843.64,21119,13.81,73888.5,1.53,-29.01,-29.67,0,*70
1491022844.9,21120,13.81,73888.8,1.55,-28.97,-29.51,0,*77
1491022846.18,21121,13.81,73888.8,1.55,-29.01,-29.73,0,*78
1491022847.44,21122,13.81,73890.0,1.55,-29.29,-29.83,0,*7E
1491022848.73,21123,13.81,73888.5,1.55,-29.35,-29.89,0,*78
1491022850.01,21124,13.81,73888.8,1.55,-29.13,-29.73,0,*7E
1491022851.28,21125,13.81,73890.5,1.55,-29.13,-29.73,0,*7F
1491022852.54,21126,13.81,73890.0,1.55,-28.85,-29.51,0,*72
1491022853.82,21127,13.81,73886.8,1.55,-29.13,-29.73,0,*7D
1491022855.08,21128,13.81,73884.8,1.55,-29.01,-29.67,0,*74
1491022856.28,21129,13.81,73888.5,1.57,-28.97,-29.61,0,*7F
1491022857.5,21130,13.81,73886.0,1.57,-29.13,-29.83,0,*76
1491022858.76,21131,13.81,73884.8,1.59,-29.39,-29.95,0,*76
1491022859.99,21132,13.81,73886.5,1.57,-29.51,-30.27,0,*74
1491022861.25,21133,13.81,73888.5,1.59,-29.51,-30.11,0,*7E
1491022862.51,21134,13.81,73880.5,1.59,-29.29,-29.83,0,*75
1491022863.73,21135,13.81,73890.5,1.57,-29.13,-29.83,0,*73
1491022864.95,21136,13.81,73886.8,1.57,-29.13,-29.79,0,*75
1491022866.19,21137,13.81,73886.8,1.59,-29.23,-29.83,0,*7C
1491022867.41,21138,13.81,73892.0,1.57,-29.13,-29.61,0,*72
1491022868.66,21139,13.81,73888.3,1.59,-28.97,-29.51,0,*73
1491022869.89,21140,13.81,73886.5,1.61,-28.85,-29.39,0,*7B
1491022871.1,21141,13.81,73888.8,1.61,-28.85,-29.45,0,*71
1491022872.3,21142,13.81,73888.3,1.61,-28.85,-29.45,0,*72
1491022873.51,21143,13.81,73890.5,1.61,-28.85,-29.45,0,*73
1491022874.72,21144,13.81,73890.8,1.61,-28.85,-29.45,0,*74
1491022875.92,21145,13.81,73888.5,1.61,-28.97,-29.57,0,*75
1491022877.15,21146,13.81,73894.3,1.61,-29.35,-29.79,0,*73
1491022878.41,21147,13.81,73890.0,1.67,-28.85,-29.51,0,*74
1491022879.63,21148,13.81,73886.8,1.61,-28.79,-29.45,0,*7B
1491022880.86,21149,13.81,73888.5,1.65,-29.01,-29.67,0,*70
1491022882.08,21150,13.81,73888.8,1.61,-29.17,-29.79,0,*74
1491022883.33,21151,13.81,73890.0,1.65,-29.01,-29.73,0,*7C
1491022884.57,21152,13.81,73890.8,1.65,-29.13,-29.73,0,*7C
1491022885.77,21153,13.81,73890.0,1.61,-29.07,-29.79,0,*76
1491022887.0,21154,13.81,73890.8,1.65,-29.01,-29.67,0,*7C
1491022888.22,21155,13.81,73890.0,1.65,-29.01,-29.67,0,*7D
1491022889.45,21156,13.81,73890.8,1.65,-28.97,-29.51,0,*75
1491022890.72,21157,13.81,73888.3,1.67,-29.13,-29.73,0,*7B
1491022891.96,21158,13.81,73888.0,1.65,-29.13,-29.73,0,*76
1491022893.18,21159,13.81,73888.0,1.65,-29.01,-29.57,0,*72
1491022894.38,21160,13.81,73886.3,1.65,-28.97,-29.57,0,*76
1491022895.65,21161,13.81,73890.5,1.67,-29.13,-29.73,0,*7E
1491022896.9,21162,13.81,73892.0,1.67,-29.13,-29.67,0,*78
1491022898.13,21163,13.81,73890.8,1.69,-28.91,-29.45,0,*7C
1491022899.37,21164,13.81,73894.5,1.67,-28.85,-29.39,0,*7B
1491022900.63,21165,13.81,73892.0,1.69,-28.63,-29.35,0,*70
1491022901.88,21166,13.81,73890.0,1.67,-29.01,-29.67,0,*7F
1491022903.1,21167,13.81,73892.5,1.69,-28.79,-29.45,0,*7E
1491022904.33,21168,13.81,73890.0,1.69,-28.79,-29.45,0,*71
1491022905.57,21169,13.81,73892.8,1.69,-28.63,-29.29,0,*71
1491022906.86,21170,13.81,73884.3,1.71,-28.91,-29.51,0,*72
1491022908.11,21171,13.81,73888.5,1.73,-28.91,-29.57,0,*77
1491022909.34,21172,13.81,73884.5,1.71,-29.07,-29.61,0,*7D
1491022910.59,21173,13.81,73884.8,1.71,-29.13,-29.67,0,*7F
1491022911.85,21174,13.81,73884.8,1.73,-28.91,-29.45,0,*71
1491022913.1,21175,13.88,73888.8,1.71,-28.91,-29.45,0,*72
1491022914.36,21176,13.81,73888.5,1.71,-28.79,-29.45,0,*77
1491022915.58,21177,13.81,73888.8,1.73,-28.85,-29.57,0,*74
1491022916.84,21178,13.81,73886.8,1.71,-29.35,-29.95,0,*7D
1491022918.12,21179,13.88,73888.5,1.73,-29.17,-29.73,0,*76
1491022919.34,21180,13.81,73888.5,1.73,-28.85,-29.45,0,*7F
1491022920.62,21181,13.88,73892.5,1.73,-28.91,-29.39,0,*70
1491022921.83,21182,13.81,73892.5,1.75,-28.85,-29.57,0,*78
1491022923.08,21183,13.81,73894.5,1.73,-29.07,-29.73,0,*72
1491022924.36,21184,13.81,73888.5,1.77,-29.01,-29.73,0,*77
1491022925.62,21185,13.81,73888.0,1.77,-29.01,-29.67,0,*73
1491022926.85,21186,13.81,73888.8,1.75,-28.85,-29.39,0,*74
1491022928.08,21187,13.81,73886.5,1.75,-28.91,-29.61,0,*7D
1491022929.36,21188,13.88,73890.3,1.77,-28.79,-29.51,0,*75
1491022930.59,21189,13.88,73888.8,1.75,-29.07,-29.73,0,*7E
1491022931.83,21190,13.81,73888.5,1.75,-28.91,-29.45,0,*7D
1491022933.05,21191,13.88,73890.5,1.77,-28.69,-29.23,0,*79
1491022934.28,21192,13.88,73888.0,1.75,-29.01,-29.61,0,*71
1491022935.54,21193,13.81,73886.5,1.77,-29.13,-29.67,0,*77
1491022936.77,21194,13.81,73886.0,1.77,-28.97,-29.57,0,*7E
1491022938.0,21195,13.88,73892.0,1.77,-28.97,-29.57,0,*7F
1491022939.26,21196,13.88,73888.0,1.77,-29.01,-29.57,0,*72
1491022940.52,21197,13.88,73890.5,1.77,-29.01,-29.57,0,*73
1491022941.78,21198,13.88,73890.0,1.77,-29.01,-29.67,0,*7F
1491022943.01,21199,13.88,73890.0,1.79,-29.01,-29.83,0,*7A
1491022944.25,21200,13.88,73890.3,1.79,-29.01,-29.67,0,*73
1491022945.5,21201,13.88,73890.3,1.79,-29.13,-29.73,0,*74
1491022946.74,21202,13.88,73890.3,1.81,-29.13,-29.79,0,*7A
1491022947.97,21203,13.88,73888.5,1.79,-29.17,-29.67,0,*77
1491022949.18,21204,13.88,73894.3,1.79,-28.97,-29.57,0,*7A
1491022950.44,21205,13.88,73892.8,1.79,-29.17,-29.89,0,*71
1491022951.66,21206,13.88,73890.0,1.81,-29.07,-29.67,0,*74
1491022952.92,21207,13.88,73890.8,1.81,-29.17,-29.83,0,*7E
1491022954.17,21208,13.88,73892.3,1.79,-29.13,-29.73,0,*7D
1491022955.41,21209,13.88,73890.0,1.81,-29.13,-29.79,0,*71
1491022956.66,21210,13.88,73888.3,1.83,-28.75,-29.39,0,*7E
1491022957.9,21211,13.88,73888.8,1.83,-28.75,-29.39,0,*7F
1491022959.14,21212,13.88,73888.5,1.83,-28.75,-29.29,0,*7D
1491022960.37,21213,13.88,73890.3,1.83,-29.01,-29.57,0,*77
1491022961.58,21214,13.88,73886.5,1.83,-29.07,-29.57,0,*76
1491022962.81,21215,13.88,73888.0,1.83,-28.91,-29.45,0,*7A
1491022964.08,21216,13.88,73890.8,1.85,-28.75,-29.39,0,*7E
1491022965.32,21217,13.88,73890.0,1.83,-28.75,-29.39,0,*79
1491022966.59,21218,13.88,73888.5,1.85,-28.75,-29.29,0,*71
1491022967.81,21219,13.88,73888.3,1.83,-28.69,-29.39,0,*7A
1491022969.06,21220,13.88,73888.3,1.85,-29.01,-29.61,0,*74
1491022970.31,21221,13.88,73888.0,1.85,-29.01,-29.57,0,*70
1491022971.57,21222,13.88,73886.0,1.85,-29.01,-29.57,0,*73
1491022972.82,21223,13.88,73884.3,1.85,-29.01,-29.57,0,*72
1491022974.08,21224,13.88,73888.8,1.85,-28.91,-29.57,0,*7D
1491022975.32,21225,13.88,73886.3,1.89,-29.07,-29.73,0,*78
1491022976.6,21226,13.88,73886.0,1.85,-29.29,-29.89,0,*7E
1491022977.87,21227,13.88,73884.0,1.85,-29.13,-29.73,0,*73
1491022979.12,21228,13.88,73886.3,1.89,-29.23,-29.73,0,*73
1491022980.37,21229,13.88,73886.5,1.89,-29.17,-29.83,0,*7A
1491022981.6,21230,13.88,73888.3,1.89,-29.07,-29.83,0,*73
1491022982.85,21231,13.88,73888.8,1.89,-29.07,-29.73,0,*7D
1491022984.09,21232,13.88,73888.0,1.89,-29.07,-29.73,0,*7E
1491022985.34,21233,13.88,73886.3,1.91,-29.17,-29.73,0,*77
1491022986.58,21234,13.88,73888.3,1.91,-29.23,-29.89,0,*72
1491022987.79,21235,13.88,73888.3,1.91,-29.23,-29.83,0,*79
1491022989.03,21236,13.88,73890.0,1.89,-29.07,-29.73,0,*7A
1491022990.27,21237,13.88,73886.0,1.91,-29.01,-29.67,0,*71
1491022991.5,21238,13.88,73890.3,1.91,-28.97,-29.51,0,*75
1491022992.76,21239,13.88,73894.3,1.93,-29.01,-29.83,0,*77
1491022993.96,21240,13.88,73890.3,1.91,-29.07,-29.67,0,*77
1491022995.19,21241,13.88,73888.3,1.91,-28.69,-29.35,0,*78
1491022996.42,21242,13.88,73890.3,1.91,-28.85,-29.39,0,*75
1491022997.65,21243,13.88,73886.8,1.91,-29.07,-29.73,0,*71
1491022998.88,21244,13.88,73890.5,1.91,-29.17,-29.67,0,*72
1491023000.13,21245,13.88,73890.5,1.93,-29.13,-29.79,0,*7A
1491023001.38,21246,13.88,73890.0,1.93,-29.17,-29.83,0,*78
1491023002.63,21247,13.88,73890.0,1.93,-29.29,-29.95,0,*73
1491023003.88,21248,13.88,73888.3,1.93,-29.13,-29.79,0,*77
1491023005.13,21249,13.88,73888.0,1.93,-29.01,-29.79,0,*75
1491023006.37,21250,13.88,73890.8,1.93,-29.13,-29.79,0,*7E
1491023007.6,21251,13.88,73890.0,1.95,-29.17,-29.83,0,*78
1491023008.86,21252,13.88,73888.0,1.93,-29.17,-29.83,0,*7D
1491023010.11,21253,13.88,73888.3,1.93,-29.17,-29.83,0,*7C
1491023011.37,21254,13.88,73890.5,1.95,-29.35,-30.01,0,*7F
1491023012.65,21255,13.88,73886.5,1.93,-29.29,-30.01,0,*75
1491023013.85,21256,13.88,73888.3,1.95,-29.45,-30.11,0,*7B
1491023015.11,21257,13.88,73888.5,1.93,-29.51,-30.11,0,*79
1491023016.4,21258,13.88,73890.0,1.93,-29.51,-30.17,0,*70
1491023017.65,21259,13.88,73890.3,1.93,-29.29,-29.95,0,*7C
1491023018.91,21260,13.88,73892.3,1.93,-29.17,-29.83,0,*7C
1491023020.14,21261,13.88,73890.3,1.95,-29.17,-29.83,0,*7B
1491023021.36,21262,13.88,73894.8,1.95,-29.17,-29.79,0,*7D
1491023022.58,21263,13.88,73890.5,1.95,-29.17,-29.79,0,*7C
1491023023.81,21264,13.88,73894.8,1.95,-29.17,-29.83,0,*7E
1491023025.03,21265,13.88,73894.3,1.95,-29.13,-29.79,0,*7E
1491023026.26,21266,13.88,73890.3,1.95,-29.13,-29.83,0,*78
1491023027.48,21267,13.88,73894.0,1.95,-29.13,-29.79,0,*7C
1491023028.72,21268,13.88,73894.3,1.97,-29.07,-29.73,0,*7E
1491023029.94,21269,13.88,73894.8,1.97,-29.07,-29.79,0,*75
1491023031.21,21270,13.88,73892.0,1.97,-29.13,-29.73,0,*72
1491023032.44,21271,13.88,73894.5,1.99,-29.23,-29.89,0,*7B
1491023033.7,21272,13.88,73892.5,1.97,-29.23,-29.89,0,*76
1491023034.95,21273,13.88,73896.0,1.97,-29.23,-29.89,0,*77
1491023036.21,21274,13.88,73890.8,1.97,-29.23,-29.89,0,*70
1491023037.43,21275,13.88,73894.0,1.97,-29.23,-29.79,0,*7E
1491023038.7,21276,13.88,73890.3,1.97,-29.13,-29.73,0,*74
1491023039.92,21277,13.88,73894.5,1.97,-28.97,-29.61,0,*7B
1491023041.17,21278,13.88,73890.8,1.97,-29.23,-29.89,0,*7C
1491023042.41,21279,13.88,73894.5,1.97,-29.13,-29.79,0,*71
1491023043.64,21280,13.88,73888.5,1.99,-29.07,-29.73,0,*76
1491023044.87,21281,13.88,73892.0,1.99,-28.85,-29.51,0,*7C
1491023046.1,21282,13.88,73888.0,1.99,-28.91,-29.57,0,*7C
1491023047.35,21283,13.88,73888.8,1.99,-28.91,-29.73,0,*7B
1491023048.58,21284,13.88,73888.0,1.99,-29.23,-29.73,0,*74
1491023049.81,21285,13.88,73888.0,1.99,-29.23,-29.89,0,*70
1491023051.04,21286,13.88,73890.8,2.01,-29.23,-29.83,0,*7B
1491023052.27,21287,13.88,73892.3,1.99,-29.17,-29.83,0,*7F
1491023053.52,21288,13.88,73890.8,2.01,-29.17,-29.83,0,*72
1491023054.78,21289,13.88,73888.5,2.01,-29.17,-29.83,0,*73
1491023056.03,21290,13.88,73890.8,2.01,-29.23,-30.01,0,*7E
1491023057.3,21291,13.88,73894.3,2.03,-29.35,-30.01,0,*7A
1491023058.55,21292,13.88,73888.0,2.01,-29.39,-29.95,0,*72
1491023059.81,21293,13.88,73890.3,2.01,-29.17,-29.83,0,*78
1491023061.03,21294,13.88,73890.5,2.03,-29.17,-29.79,0,*78
1491023062.28,21295,13.88,73892.3,2.01,-29.07,-29.73,0,*70
1491023063.52,21296,13.88,73892.3,2.03,-29.01,-29.67,0,*72
1491023064.77,21297,13.88,73894.5,2.01,-29.01,-29.67,0,*71
1491023066.0,21298,13.88,73894.0,2.03,-29.01,-29.67,0,*7C
1491023067.23,21299,13.88,73892.3,2.03,-29.17,-29.79,0,*75
1491023068.45,21300,13.88,73892.3,2.03,-29.29,-29.79,0,*79
1491023069.71,21301,13.88,73892.5,2.01,-29.17,-29.83,0,*72
1491023070.93,21302,13.88,73894.0,2.03,-29.01,-29.61,0,*78
1491023072.14,21303,13.88,73892.5,2.03,-28.97,-29.61,0,*77
1491023073.39,21304,13.88,73894.0,2.03,-28.63,-29.17,0,*7A
1491023074.63,21305,13.88,73890.3,2.03,-28.59,-29.13,0,*76
1491023075.91,21306,13.88,73894.5,2.05,-28.43,-29.01,0,*7B
1491023077.13,21307,13.88,73892.8,2.07,-28.25,-28.97,0,*76
1491023078.35,21308,13.88,73892.3,2.07,-28.69,-29.29,0,*75
1491023079.57,21309,13.88,73892.5,2.07,-28.79,-29.45,0,*7F
1491023080.8,21310,13.88,73890.3,2.07,-28.91,-29.57,0,*72
1491023082.03,21311,13.88,73892.5,2.07,-28.91,-29.57,0,*73
1491023083.23,21312,13.88,73890.5,2.07,-28.97,-29.61,0,*73
1491023084.42,21313,13.88,73894.3,2.07,-28.97,-29.61,0,*72
1491023085.66,21314,13.88,73896.0,2.11,-28.91,-29.57,0,*71
1491023086.85,21315,13.88,73892.5,2.07,-29.23,-29.79,0,*73
1491023088.08,21316,13.88,73892.0,2.11,-29.07,-29.73,0,*7B
1491023089.29,21317,13.88,73892.5,2.11,-29.07,-29.83,0,*75
1491023090.52,21318,13.88,73888.0,2.11,-29.17,-29.83,0,*7B
1491023091.75,21319,13.88,73892.8,2.13,-29.07,-29.67,0,*73
1491023093.01,21320,13.88,73894.0,2.11,-29.01,-29.73,0,*78
1491023094.23,21321,13.88,73892.5,2.11,-29.07,-29.73,0,*7F
1491023095.49,21322,13.88,73892.5,2.13,-28.91,-29.57,0,*76
1491023096.75,21323,13.88,73894.8,2.13,-28.91,-29.57,0,*77
1491023098.01,21324,13.88,73892.3,2.11,-29.01,-29.73,0,*7C
1491023099.26,21325,13.94,73894.0,2.13,-29.01,-29.67,0,*7A
1491023100.52,21326,13.94,73892.3,2.13,-29.01,-29.67,0,*79
1491023101.78,21327,13.88,73892.8,2.13,-28.91,-29.57,0,*73
1491023103.04,21328,13.88,73892.5,2.13,-28.91,-29.57,0,*7C
1491023104.29,21329,13.88,73890.8,2.13,-29.01,-29.67,0,*76
1491023105.55,21330,13.88,73892.5,2.13,-29.07,-29.73,0,*7D
1491023106.8,21331,13.94,73892.3,2.13,-29.01,-29.67,0,*7F
1491023108.03,21332,13.88,73892.8,2.15,-29.01,-29.67,0,*7A
1491023109.23,21333,13.88,73892.0,2.15,-28.97,-29.61,0,*73
1491023110.49,21334,13.88,73890.8,2.15,-28.79,-29.51,0,*77
1491023111.74,21335,13.88,73892.0,2.17,-28.85,-29.51,0,*77
1491023112.98,21336,13.94,73892.8,2.15,-29.01,-29.67,0,*7E
1491023114.23,21337,13.94,73894.5,2.17,-29.01,-29.67,0,*7D
1491023115.43,21338,13.88,73892.5,2.15,-28.97,-29.61,0,*78
1491023116.66,21339,13.94,73894.0,2.15,-29.01,-29.67,0,*71
1491023117.86,21340,13.94,73892.8,2.19,-29.07,-29.79,0,*7A
1491023119.09,21341,13.88,73892.5,2.15,-29.17,-29.83,0,*73
1491023120.33,21342,13.94,73894.0,2.17,-29.13,-29.79,0,*73
1491023121.53,21343,13.88,73892.8,2.15,-28.97,-29.61,0,*74
1491023122.73,21344,13.88,73892.8,2.15,-28.97,-29.61,0,*73
1491023123.96,21345,13.94,73892.5,2.17,-28.97,-29.61,0,*70
1491023125.18,21346,13.94,73894.8,2.15,-29.01,-29.61,0,*7F
1491023126.38,21347,13.94,73892.8,2.19,-28.97,-29.61,0,*7C
1491023127.61,21348,13.94,73894.3,2.19,-28.91,-29.57,0,*70
1491023128.84,21349,13.94,73894.8,2.17,-28.97,-29.61,0,*7C
1491023130.07,21350,13.94,73892.8,2.17,-28.97,-29.67,0,*72
1491023131.27,21351,13.88,73890.8,2.19,-28.97,-29.57,0,*7E
1491023132.47,21352,13.94,73892.8,2.19,-29.07,-29.79,0,*79
1491023133.67,21353,13.94,73892.5,2.19,-29.07,-29.83,0,*7D
1491023134.9,21354,13.94,73892.8,2.19,-29.29,-29.95,0,*71
1491023136.13,21355,13.94,73894.8,2.21,-29.07,-29.67,0,*7A
1491023137.42,21356,13.94,73892.5,2.21,-28.91,-29.51,0,*72
1491023138.7,21357,13.94,73892.0,2.21,-29.01,-29.73,0,*7B
1491023139.93,21358,13.94,73892.3,2.19,-29.29,-29.83,0,*7A
1491023141.15,21359,13.94,73892.0,2.19,-29.29,-29.95,0,*7C
1491023142.43,21360,13.94,73892.3,2.21,-29.17,-29.73,0,*78
1491023143.65,21361,13.94,73898.0,2.19,-29.07,-29.73,0,*73
1491023144.88,21362,13.88,73892.3,2.19,-29.13,-29.83,0,*7A
1491023146.11,21363,13.94,73894.5,2.19,-29.29,-29.83,0,*72
1491023147.33,21364,13.94,73894.0,2.19,-29.07,-29.73,0,*76
1491023148.56,21365,13.94,73892.5,2.19,-29.07,-29.73,0,*77
1491023149.78,21366,13.94,73892.8,2.19,-28.97,-29.73,0,*7C
1491023151.04,21367,13.94,73894.0,2.21,-28.91,-29.67,0,*75
1491023152.25,21368,13.94,73892.8,2.23,-28.85,-29.57,0,*7E
1491023153.51,21369,13.94,73892.8,2.21,-28.85,-29.51,0,*7B
1491023154.77,21370,13.94,73894.3,2.21,-28.85,-29.51,0,*73
1491023156.03,21371,13.94,73896.3,2.21,-28.85,-29.51,0,*72
1491023157.32,21372,13.94,73894.0,2.21,-28.91,-29.51,0,*74
1491023158.55,21373,13.94,73892.3,2.23,-29.01,-29.57,0,*79
1491023159.8,21374,13.94,73890.8,2.23,-29.17,-29.73,0,*7F
1491023161.0,21375,13.94,73894.5,2.23,-29.07,-29.79,0,*75
1491023162.23,21376,13.94,73894.3,2.23,-28.85,-29.51,0,*77
1491023163.46,21377,13.94,73894.0,2.23,-28.91,-29.57,0,*75
1491023164.72,21378,13.94,73896.3,2.25,-28.79,-29.45,0,*79
1491023165.95,21379,13.94,73894.3,2.25,-28.85,-29.61,0,*7D
1491023167.18,21380,13.94,73892.3,2.27,-28.85,-29.51,0,*7A
1491023168.44,21381,13.94,73888.5,2.25,-28.79,-29.45,0,*7F
1491023169.67,21382,13.94,73892.3,2.27,-28.69,-29.35,0,*78
1491023170.92,21383,13.94,73894.0,2.29,-28.79,-29.45,0,*71
1491023172.15,21384,13.94,73890.5,2.27,-29.01,-29.67,0,*76
1491023173.41,21385,13.94,73892.8,2.25,-29.01,-29.61,0,*73
1491023174.66,21386,13.94,73892.3,2.27,-28.79,-29.35,0,*7D
1491023175.87,21387,13.94,73894.5,2.27,-28.69,-29.45,0,*7A
1491023177.12,21388,13.94,73892.5,2.29,-28.75,-29.45,0,*76
1491023178.32,21389,13.94,73894.8,2.27,-28.97,-29.67,0,*75
1491023179.57,21390,13.94,73892.8,2.27,-29.13,-29.73,0,*75
1491023180.82,21391,13.94,73890.5,2.29,-29.13,-29.79,0,*70
1491023182.02,21392,13.94,73892.5,2.27,-29.23,-29.83,0,*7B
1491023183.25,21393,13.94,73892.5,2.29,-29.23,-29.83,0,*74
1491023184.48,21394,13.94,73894.0,2.27,-29.17,-29.83,0,*7A
1491023185.7,21395,13.94,73894.3,2.29,-29.07,-29.79,0,*71
1491023186.95,21396,13.94,73894.5,2.33,-29.29,-29.79,0,*75
1491023188.18,21397,13.94,73892.5,2.29,-29.07,-29.67,0,*7C
1491023189.43,21398,13.94,73894.3,2.29,-28.79,-29.57,0,*78
1491023190.68,21399,13.94,73892.3,2.29,-28.75,-29.45,0,*76
1491023191.9,21400,13.94,73894.5,2.29,-29.07,-29.67,0,*75
1491023193.13,21401,13.94,73892.0,2.33,-28.97,-29.61,0,*71
1491023194.38,21402,13.94,73892.0,2.29,-28.91,-29.57,0,*7A
1491023195.61,21403,13.94,73892.3,2.33,-28.97,-29.61,0,*73
1491023196.83,21404,13.94,73892.0,2.33,-29.23,-29.79,0,*73
1491023198.09,21405,13.94,73892.5,2.33,-29.13,-29.83,0,*74
1491023199.32,21406,13.94,73894.3,2.33,-29.07,-29.83,0,*72
1491023200.55,21407,13.94,73888.8,2.33,-29.23,-29.83,0,*75
1491023201.75,21408,13.94,73894.8,2.35,-29.07,-29.61,0,*76
1491023203.03,21409,13.94,73892.0,2.33,-29.29,-30.01,0,*73
1491023204.26,21410,13.94,73894.5,2.33,-29.23,-29.83,0,*73
1491023205.49,21411,13.94,73890.5,2.33,-29.23,-29.83,0,*72
1491023206.72,21412,13.94,73896.3,2.33,-29.07,-29.95,0,*70
1491023207.95,21413,13.94,73892.8,2.33,-29.07,-29.67,0,*7C
1491023209.2,21414,13.94,73896.0,2.33,-28.79,-29.61,0,*75
1491023210.46,21415,13.94,73890.5,2.33,-28.91,-29.61,0,*72
1491023211.68,21416,13.94,73892.3,2.35,-28.91,-29.61,0,*77
1491023212.94,21417,13.94,73894.8,2.35,-29.29,-29.89,0,*72
1491023214.16,21418,13.94,73890.3,2.35,-29.17,-29.79,0,*7F
1491023215.38,21419,13.94,73894.3,2.35,-29.17,-29.79,0,*7E
1491023216.6,21420,13.94,73890.0,2.35,-29.07,-29.73,0,*7F
1491023217.83,21421,13.94,73892.3,2.35,-29.07,-29.73,0,*7E
1491023219.05,21422,13.94,73896.0,2.35,-29.01,-29.61,0,*78
1491023220.29,21423,13.94,73892.3,2.37,-28.85,-29.51,0,*75
1491023221.55,21424,13.94,73896.3,2.37,-28.75,-29.51,0,*7D
1491023222.76,21425,13.94,73894.3,2.37,-28.85,-29.57,0,*75
1491023223.99,21426,13.94,73894.3,2.37,-28.85,-29.39,0,*7E
1491023225.19,21427,13.94,73896.0,2.37,-28.69,-29.23,0,*76
1491023226.47,21428,13.94,73892.8,2.39,-28.79,-29.35,0,*71
1491023227.69,21429,13.94,73896.8,2.37,-28.69,-29.39,0,*73
1491023228.93,21430,13.94,73894.3,2.37,-28.91,-29.57,0,*74
1491023230.18,21431,13.94,73894.8,2.39,-28.79,-29.45,0,*7E
1491023231.39,21432,13.94,73896.3,2.37,-28.97,-29.67,0,*73
1491023232.64,21433,13.94,73896.0,2.39,-28.97,-29.51,0,*79
1491023233.9,21434,13.94,73896.0,2.39,-28.63,-29.45,0,*70
1491023235.13,21435,13.94,73896.3,2.39,-28.85,-29.57,0,*7A
1491023236.33,21436,13.94,73894.8,2.41,-29.07,-29.61,0,*78
1491023237.54,21437,13.94,73896.0,2.41,-28.97,-29.61,0,*71
1491023238.74,21438,13.94,73896.5,2.41,-29.07,-29.67,0,*70
1491023240.01,21439,13.94,73896.0,2.41,-28.91,-29.51,0,*7A
1491023241.26,21440,13.94,73892.8,2.41,-28.75,-29.39,0,*70
1491023242.51,21441,13.94,73896.0,2.41,-28.75,-29.39,0,*71
1491023243.79,21442,13.94,73894.5,2.43,-28.63,-29.39,0,*77
1491023245.07,21443,13.94,73894.5,2.43,-28.63,-29.29,0,*77
1491023246.34,21444,13.94,73892.8,2.43,-28.59,-29.29,0,*79
1491023247.62,21445,13.94,73892.3,2.43,-28.59,-29.29,0,*78
1491023248.84,21446,13.94,73896.0,2.45,-28.59,-29.23,0,*77
1491023250.08,21447,13.94,73894.8,2.47,-28.69,-29.39,0,*7C
1491023251.29,21448,13.94,73896.0,2.45,-28.85,-29.45,0,*78
1491023252.54,21449,13.94,73892.8,2.47,-28.75,-29.45,0,*74
1491023253.8,21450,13.94,73894.5,2.47,-28.91,-29.57,0,*75
1491023255.07,21451,13.94,73898.0,2.47,-29.01,-29.73,0,*7A
1491023256.3,21452,13.94,73898.0,2.47,-28.85,-29.57,0,*72
1491023257.56,21453,13.94,73896.5,2.47,-28.91,-29.57,0,*76
1491023258.79,21454,13.94,73894.3,2.47,-28.85,-29.61,0,*71
1491023260.02,21455,13.94,73894.0,2.49,-28.85,-29.51,0,*7D
1491023261.28,21456,13.94,73894.5,2.47,-28.91,-29.57,0,*73
1491023262.51,21457,13.94,73894.0,2.47,-28.85,-29.57,0,*77
1491023263.74,21458,13.94,73896.5,2.47,-28.85,-29.57,0,*78
1491023264.99,21459,13.94,73896.3,2.49,-28.79,-29.51,0,*72
1491023266.23,21460,13.94,73894.5,2.49,-28.85,-29.51,0,*7B
1491023267.46,21461,13.94,73898.8,2.49,-29.01,-29.67,0,*72
1491023268.66,21462,13.94,73898.5,2.49,-28.97,-29.57,0,*7C
1491023269.94,21463,13.94,73898.8,2.51,-28.79,-29.35,0,*70
1491023271.17,21464,13.94,73898.0,2.49,-29.01,-29.67,0,*77
1491023272.41,21465,13.94,73898.8,2.49,-29.17,-29.83,0,*7B
1491023273.68,21466,13.94,73896.3,2.51,-29.13,-29.89,0,*7F
1491023274.91,21467,13.94,73892.5,2.51,-28.85,-29.57,0,*73
1491023276.14,21468,13.94,73894.0,2.51,-28.97,-29.67,0,*7C
1491023277.4,21469,13.94,73896.8,2.51,-29.01,-29.67,0,*73
1491023278.62,21470,13.94,73894.8,2.53,-29.13,-29.79,0,*75
1491023279.87,21471,13.94,73894.5,2.53,-29.29,-30.01,0,*7A
1491023281.15,21472,13.94,73896.0,2.51,-29.35,-30.05,0,*72
1491023282.42,21473,13.94,73894.5,2.51,-29.13,-29.73,0,*7E
1491023283.63,21474,13.94,73894.0,2.49,-28.97,-29.67,0,*78
1491023284.91,21475,13.94,73892.0,2.51,-28.79,-29.51,0,*75
1491023286.16,21476,13.94,73894.8,2.51,-28.85,-29.51,0,*75
1491023287.42,21477,13.94,73896.3,2.51,-28.85,-29.51,0,*74
1491023288.65,21478,13.94,73898.5,2.51,-28.97,-29.57,0,*7E
1491023289.93,21479,13.94,73894.8,2.51,-29.35,-30.01,0,*7D
1491023291.21,21480,13.94,73896.5,2.51,-29.35,-30.05,0,*7F
1491023292.42,21481,13.94,73892.3,2.53,-29.07,-29.67,0,*71
1491023293.64,21482,14.0,73898.3,2.57,-28.69,-29.29,0,*75
1491023294.84,21483,13.94,73898.0,2.57,-28.69,-29.45,0,*7E
1491023296.04,21484,13.94,73896.3,2.53,-29.07,-29.67,0,*74
1491023297.27,21485,13.94,73898.0,2.57,-28.91,-29.79,0,*70
1491023298.49,21486,13.94,73898.8,2.53,-29.29,-29.95,0,*77
1491023299.69,21487,13.94,73896.8,2.53,-29.45,-30.11,0,*78
1491023300.9,21488,14.0,73896.3,2.53,-29.45,-30.11,0,*77
1491023302.16,21489,13.94,73896.8,2.53,-29.51,-30.17,0,*75
1491023303.42,21490,13.94,73896.0,2.53,-29.35,-30.01,0,*78